Weather in Sosnovyy Bor

Russia / Saint-Petersburg and Leningrad Oblast     60°21′27″N   29°06′37″E
temp.,
°C
wind,
m/s
gust,
m/s
humid.,
%
clouds,
%
prec.,
mm/h
press.,
hPa
HPBL,
m
28 november, sun
sun2800:00−3ne81478100 0.0 1003771
03:00−3ne81478100 0.0 1002792
06:00−3ne71376100 0.0 1001777
09:00−3ne71377100 0.0 1001788
12:00−3ne71273100 0.0 1003759
15:00−3ne61075100 0.1 1004800
18:00−4ne51076100 0.0 1005706
21:00−4ne5978100 0.0 1007735
29 november, mon
mon2900:00−4ene5107879 0.0 1009716
03:00−5ene5108680 0.0 1009571
06:00−4ene598895 0.1 1009651
09:00−4e61175100 0.1 1009944
12:00−4ene71272100 0.0 1008833
15:00−4ene81475100 0.0 1004781
18:00−4ene81479100 0.0 1001683
21:00−4ne81691100 0.5 998636
30 november, tue
tue3000:00−4ne81591100 0.9 994763
03:00−4ne71393100 3.2 989656
06:00−3ne61295100 2.9 985556
09:00−3nne61195100 6.1 983518
12:00−4n61294100 2.5 982388
15:00−5n71194100 3.9 980355
18:00−5nnw61094100 1.3 981412
21:00−5nnw599286 1.9 981672
1 december, wed
wed100:00−5nw7108992 0.2 981739
03:00−5nw698583 0.3 983717
06:00−5nw71083100 0.1 984785
09:00−6nw7108478 0.1 986717
12:00−6nw7108279 0.0 988837
15:00−6nw7118091 0.1 989911
18:00−5nw7117585 0.0 989862
21:00−5wnw697773 0.1 990657
2 december, thu
thu200:00−7nw478441 0.0 990371
03:00−9nw238756 0.0 990288
06:00−9ne1187100 0.0 98974
09:00−8ene3492100 0.0 988202
12:00−7e4691100 0.0 988274
15:00−6ene5890100 0.0 987322
18:00−6ne61193100 0.2 987469
21:00−6nne61193100 1.0 988542